Location: Pensacola
(30.4142°N, 87.2155°W)
Time: 01:47:47
(UTC-06:00)

Amateur Radio Satellites - All Passes

Search period start: 21 November 2017 01:17
Search period end: 22 November 2017 01:17
Location: Pensacola, 30.4142°N, 87.2155°W

Satellite Date Start Highest point End Downlink Frequencies (MHz)
Time Altitude Azimuth
BUGSAT 1 21 Nov 01:19:15 01:22:57 36° 286° (WNW) 01:26:37 437.445
UKube-1 21 Nov 01:25:38 01:29:53 61° 259° (WSW) 01:34:11 .
BEESAT 3 21 Nov 02:04:33 02:08:30 84° 297° (WNW) 02:12:30 437.485
BEESAT 21 Nov 02:13:21 02:17:56 50° 74° (ENE) 02:22:33 436.000
ITUPSAT 1 21 Nov 02:22:43 02:27:26 63° 75° (ENE) 02:32:10 437.325
AO-85 21 Nov 02:26:11 02:27:02 11° 107° (ESE) 02:27:52 145.980
M-CUBED/EXP-1 PRIME 21 Nov 02:33:24 02:38:01 84° 105° (ESE) 02:42:40 437.505
Oscar 19 21 Nov 02:34:19 02:37:37 17° 292° (WNW) 02:40:55 437.125/150
MOZHAYETS 4 21 Nov 02:38:00 02:42:31 62° 259° (W) 02:47:02
RS-15 21 Nov 02:38:27 02:48:57 35° 49° (NE) 02:58:53 29.354- 29.394
ITAMSAT 1 21 Nov 02:46:05 02:50:27 27° 97° (E) 02:54:47 435.822/435.867
CUBESAT XI-V 21 Nov 02:49:17 02:53:20 32° 73° (ENE) 02:57:26 437.345
nSIGHT-1 21 Nov 02:56:56 02:59:02 16° 37° (NE) 03:01:07 .
Gurwin Techsat 1B 21 Nov 02:57:47 03:00:48 16° 294° (WNW) 03:03:50 435.225
AO-7 21 Nov 03:10:45 03:19:05 69° 105° (ESE) 03:27:23 .
BEESAT 2 21 Nov 03:15:30 03:19:20 46° 300° (WNW) 03:23:15 435.950
YUBILEINY 21 Nov 03:28:31 03:30:59 11° 79° (ENE) 03:33:26 435.215
DOVE 4 21 Nov 03:32:37 03:34:07 11° 91° (E) 03:35:36 437.250
ISS 21 Nov 03:39:28 03:42:29 35° 42° (NE) 03:45:30 437.550
BEESAT 21 Nov 03:54:04 03:55:53 12° 266° (W) 03:57:42 436.000
AO-85 21 Nov 04:03:20 04:06:56 37° 301° (WNW) 04:10:38 145.980
ITAMSAT 1 21 Nov 04:25:25 04:29:45 27° 290° (WNW) 04:34:04 435.822/435.867
CUBESAT XI-V 21 Nov 04:27:40 04:30:42 17° 265° (W) 04:33:45 437.345
KKS-1 21 Nov 04:31:13 04:35:41 75° 258° (WSW) 04:40:11 437.445
nSIGHT-1 21 Nov 04:32:25 04:35:19 32° 230° (SW) 04:38:11 .
RS-15 21 Nov 04:50:33 05:01:49 59° 250° (WSW) 05:12:33 29.354- 29.394
STARS 21 Nov 04:55:55 05:00:20 77° 77° (ENE) 05:04:46 437.465
KAITUO 1B 21 Nov 04:59:51 05:00:16 10° 94° (E) 05:00:39 145.475/437.950
AO-7 21 Nov 05:05:04 05:11:03 22° 300° (WNW) 05:17:03 .
DOVE 4 21 Nov 05:07:07 05:12:09 58° 285° (WNW) 05:16:53 437.250
XW-2D 21 Nov 05:11:51 05:14:59 24° 97° (E) 05:18:08 145.860 - 145.880
ISS 21 Nov 05:17:04 05:18:41 13° 234° (SW) 05:20:18 437.550
YUBILEINY 21 Nov 05:17:37 05:26:21 84° 93° (E) 05:35:10 435.215
STRAND 1 21 Nov 05:19:37 05:21:48 13° 66° (ENE) 05:24:00 437.568
HO-68 21 Nov 05:21:23 05:23:57 12° 93° (E) 05:26:31 435.675
XW-2B 21 Nov 05:26:18 05:29:51 36° 99° (E) 05:33:24 145.730 - 145.750
NUDT-PHONESAT 21 Nov 05:41:50 05:45:20 39° 99° (E) 05:48:49 437.300
SO-50 21 Nov 05:43:13 05:46:09 16° 53° (NE) 05:49:07 436.795
XW-2C 21 Nov 05:51:40 05:55:29 89° 278° (W) 05:59:18 145.795 - 145.815
LilacSat-2 21 Nov 05:53:30 05:57:20 77° 283° (WNW) 06:01:10 437.200
CUTE 1.7 + AOD 2 21 Nov 05:54:05 05:56:54 17° 95° (E) 05:59:42 437.475
CUTE-I 21 Nov 05:55:39 06:00:59 64° 102° (ESE) 06:06:16 437.470
XW-2F 21 Nov 06:02:30 06:06:16 68° 284° (WNW) 06:10:03 145.980 - 146.000
SEEDS 21 Nov 06:24:15 06:27:39 23° 96° (E) 06:31:03 437.485
KAITUO 1B 21 Nov 06:30:50 06:34:17 35° 286° (WNW) 06:37:45 145.475/437.950
FO-29 21 Nov 06:32:17 06:36:56 21° 63° (ENE) 06:41:58 435.910
AAUSAT CUBESAT 2 21 Nov 06:33:28 06:34:28 11° 93° (E) 06:35:29 437.432
XW-2D 21 Nov 06:46:33 06:48:54 16° 289° (WNW) 06:51:14 145.860 - 145.880
CUBEBUG 2 21 Nov 06:48:16 06:52:13 42° 99° (E) 06:56:09 437.445
STRAND 1 21 Nov 06:55:20 07:00:24 60° 259° (W) 07:05:29 437.568
XW-2B 21 Nov 07:02:46 07:03:37 11° 291° (WNW) 07:04:28 145.730 - 145.750
HO-68 21 Nov 07:05:03 07:12:16 86° 286° (WNW) 07:19:26 435.675
XW-2A 21 Nov 07:05:17 07:08:18 30° 98° (E) 07:11:19 145.665 - 145.685
Oscar 11 21 Nov 07:10:04 07:10:48 10° 93° (E) 07:11:33 .
YUBILEINY 21 Nov 07:19:25 07:24:04 15° 291° (WNW) 07:28:45 435.215
SO-50 21 Nov 07:22:19 07:26:48 45° 246° (WSW) 07:31:17 436.795
CUTE 1.7 + AOD 2 21 Nov 07:29:00 07:32:40 29° 287° (WNW) 07:36:21 437.475
ZACube-1 21 Nov 07:35:32 07:39:29 42° 99° (E) 07:43:27 437.345
CUTE-I 21 Nov 07:38:11 07:40:24 13° 295° (WNW) 07:42:35 437.470
UWE-3 21 Nov 07:45:04 07:49:10 65° 283° (WNW) 07:53:16 435.000/436.395/437.385
SEEDS 21 Nov 07:59:57 08:03:08 21° 289° (WNW) 08:06:20 437.485
AAUSAT CUBESAT 2 21 Nov 08:06:05 08:10:02 42° 285° (WNW) 08:13:59 437.432
PCSat 21 Nov 08:06:16 08:07:57 11° 51° (NE) 08:09:38 145.827
FO-29 21 Nov 08:15:02 08:21:13 57° 261° (W) 08:28:15 435.910
UNISAT 6 21 Nov 08:19:58 08:23:57 30° 73° (ENE) 08:27:53 437.425
TIGRISAT 21 Nov 08:24:18 08:28:18 30° 73° (ENE) 08:32:14 435.000
AO-73 21 Nov 08:26:33 08:30:31 46° 285° (WNW) 08:34:31 145.935
FALCONSAT 3 21 Nov 08:26:43 08:30:15 46° 154° (SSE) 08:33:49 435.103
CUBEBUG 2 21 Nov 08:27:24 08:28:23 11° 292° (WNW) 08:29:22 437.445
DELFI C3 21 Nov 08:37:12 08:40:19 22° 96° (E) 08:43:25 145.870
Oscar 11 21 Nov 08:42:57 08:47:05 47° 285° (WNW) 08:51:14 .
HO-68 21 Nov 08:56:14 08:58:55 12° 301° (WNW) 09:01:35 435.675
ZACube-1 21 Nov 09:14:04 09:15:20 11° 291° (WNW) 09:16:36 437.345
PRISM 21 Nov 09:18:30 09:22:25 45° 74° (ENE) 09:26:22 437.425
EO-88 21 Nov 09:39:51 09:43:30 72° 101° (E) 09:47:08 145.990 - 145.960
AIST 2D 21 Nov 09:40:27 09:42:50 18° 72° (ENE) 09:45:12 435.315
Max Valier Satellite 21 Nov 09:41:40 09:45:18 67° 283° (WNW) 09:48:57 145.860
PCSat 21 Nov 09:46:31 09:51:57 83° 247° (WSW) 09:57:21 145.827
UNISAT 6 21 Nov 09:57:19 10:00:36 19° 264° (W) 10:03:50 437.425
POLYITAN 1 21 Nov 10:00:39 10:02:16 12° 68° (ENE) 10:03:53 437.675
TIGRISAT 21 Nov 10:01:41 10:04:55 19° 264° (W) 10:08:07 435.000
LO-87 21 Nov 10:05:42 10:07:20 13° 95° (E) 10:08:59 145.935 - 145.965
FALCONSAT 3 21 Nov 10:05:46 10:09:21 49° 347° (NNW) 10:12:57 435.103
DELFI C3 21 Nov 10:11:59 10:14:52 19° 289° (WNW) 10:17:43 145.870
QB50P2 21 Nov 10:21:53 10:25:23 25° 72° (ENE) 10:28:53 145.880/145.840
DUCHIFAT 1 21 Nov 11:10:29 11:14:41 70° 76° (ENE) 11:18:52 145.980
SPROUT 21 Nov 11:13:20 11:15:39 14° 95° (E) 11:17:57 437.525
AIST 2D 21 Nov 11:13:34 11:15:50 17° 264° (W) 11:18:07 435.315
EO-79 21 Nov 11:17:59 11:22:13 68° 259° (W) 11:26:26 145.935-145.965
NANOSAT C BR1 21 Nov 11:21:08 11:25:21 71° 258° (WSW) 11:29:34 145.865
ESTCUBE 1 21 Nov 11:31:52 11:36:20 61° 284° (WNW) 11:40:48 437.505/2401.250
POLYITAN 1 21 Nov 11:33:35 11:37:37 42° 261° (W) 11:41:39 437.675
LO-87 21 Nov 11:37:49 11:40:42 24° 287° (WNW) 11:43:34 145.935 - 145.965
BEESAT 2 21 Nov 11:39:05 11:41:43 17° 54° (NE) 11:44:20 435.950
O/OREOS (USA 219) 21 Nov 11:39:42 11:41:50 13° 99° (E) 11:43:58 437.305
FALCONSAT 3 21 Nov 11:45:22 11:48:48 36° 3° (N) 11:52:16 435.103
VELOX 1 21 Nov 11:52:05 11:55:51 27° 98° (E) 11:59:35 145.980
QB50P2 21 Nov 11:58:01 12:01:04 19° 264° (W) 12:04:08 145.880/145.840
BUGSAT 1 21 Nov 12:02:19 12:06:29 64° 76° (ENE) 12:10:38 437.445
BEESAT 3 21 Nov 12:03:42 12:07:31 55° 246° (WSW) 12:11:16 437.485
Oscar 19 21 Nov 12:05:12 12:09:48 35° 72° (ENE) 12:14:25 437.125/150
Gurwin Techsat 1B 21 Nov 12:31:35 12:36:39 47° 73° (ENE) 12:41:43 435.225
DX 1 21 Nov 12:37:36 12:40:33 18° 96° (E) 12:43:28 434.975-435.025
AO-85 21 Nov 12:38:33 12:42:58 35° 59° (ENE) 12:47:39 145.980
SPROUT 21 Nov 12:47:45 12:51:33 33° 287° (WNW) 12:55:20 437.525
M-CUBED/EXP-1 PRIME 21 Nov 13:14:21 13:17:28 32° 68° (ENE) 13:20:48 437.505
BEESAT 2 21 Nov 13:15:57 13:19:27 30° 249° (WSW) 13:22:54 435.950
O/OREOS (USA 219) 21 Nov 13:16:27 13:20:47 41° 292° (WNW) 13:25:09 437.305
UKube-1 21 Nov 13:18:21 13:22:14 32° 99° (E) 13:26:06 .
JUGNU 21 Nov 13:19:52 13:23:54 19° 166° (SSE) 13:27:55 437.505
50 SAT 21 Nov 13:20:53 13:24:07 85° 100° (E) 13:27:18 437.505
FALCONSAT 3 21 Nov 13:24:30 13:28:11 71° 19° (NNE) 13:31:51 435.103
VELOX 1 21 Nov 13:28:49 13:32:04 20° 290° (WNW) 13:35:18 145.980
Oscar 19 21 Nov 13:45:27 13:49:07 20° 264° (W) 13:52:49 437.125/150
ITAMSAT 1 21 Nov 13:58:43 14:02:51 24° 69° (ENE) 14:07:00 435.822/435.867
AO-7 21 Nov 14:03:19 14:11:19 57° 69° (ENE) 14:19:22 .
NO-84 21 Nov 14:09:29 14:12:56 68° 311° (NW) 14:16:44 435.350 FM
DX 1 21 Nov 14:12:53 14:16:40 29° 288° (WNW) 14:20:27 434.975-435.025
Gurwin Techsat 1B 21 Nov 14:13:33 14:16:43 16° 265° (W) 14:19:55 435.225
AO-85 21 Nov 14:19:26 14:23:12 22° 250° (WSW) 14:27:08 145.980
BEESAT 21 Nov 14:19:53 14:23:21 20° 96° (E) 14:26:49 436.000
ITUPSAT 1 21 Nov 14:29:24 14:33:19 25° 97° (E) 14:37:12 437.325
MOZHAYETS 4 21 Nov 14:38:32 14:42:57 46° 100° (E) 14:47:20
CUBESAT XI-V 21 Nov 14:52:53 14:55:00 13° 94° (E) 14:57:07 437.345
UKube-1 21 Nov 14:55:17 14:57:55 16° 291° (WNW) 15:00:33 .
FALCONSAT 3 21 Nov 15:03:59 15:07:05 26° 211° (SSW) 15:10:13 435.103
SRMSAT 21 Nov 15:06:45 15:08:40 12° 161° (SSE) 15:10:34 437.500
JUGNU 21 Nov 15:07:27 15:12:23 28° 176° (S) 15:17:17 437.505
YUBILEINY 21 Nov 15:35:41 15:43:21 32° 76° (ENE) 15:50:57 435.215
ITAMSAT 1 21 Nov 15:37:30 15:42:05 31° 262° (W) 15:46:42 435.822/435.867
BEESAT 21 Nov 15:56:56 16:01:04 30° 289° (WNW) 16:05:11 436.000
AO-7 21 Nov 15:57:51 16:04:18 25° 262° (W) 16:10:48 .
DOVE 4 21 Nov 16:05:33 16:10:27 74° 76° (ENE) 16:15:38 437.250
ITUPSAT 1 21 Nov 16:07:09 16:10:58 25° 290° (WNW) 16:14:46 437.325
MOZHAYETS 4 21 Nov 16:17:38 16:19:37 13° 292° (WNW) 16:21:36
CUBESAT XI-V 21 Nov 16:28:01 16:32:29 46° 286° (WNW) 16:36:58 437.345
KKS-1 21 Nov 16:28:04 16:32:03 31° 99° (E) 16:35:58 437.445
XW-2C 21 Nov 16:28:11 16:30:44 18° 72° (ENE) 16:33:17 145.795 - 145.815
LilacSat-2 21 Nov 16:30:21 16:33:11 21° 72° (ENE) 16:36:02 437.200
XW-2F 21 Nov 16:38:06 16:41:00 22° 73° (ENE) 16:43:54 145.980 - 146.000
STARS 21 Nov 16:51:37 16:54:57 21° 97° (E) 16:58:16 437.465
SRMSAT 21 Nov 16:52:42 16:57:15 23° 169° (S) 17:01:48 437.500
RS-15 21 Nov 16:53:27 17:04:16 39° 106° (ESE) 17:15:07 29.354- 29.394
JUGNU 21 Nov 16:56:02 17:00:53 27° 186° (S) 17:05:45 437.505
KAITUO 1B 21 Nov 17:04:39 17:08:04 38° 75° (ENE) 17:11:30 145.475/437.950
CUTE-I 21 Nov 17:11:38 17:16:53 60° 74° (ENE) 17:22:11 437.470
XW-2D 21 Nov 17:20:24 17:24:07 76° 260° (W) 17:27:51 145.860 - 145.880
HO-68 21 Nov 17:27:27 17:34:01 40° 68° (ENE) 17:40:36 435.675
YUBILEINY 21 Nov 17:31:57 17:40:10 45° 271° (W) 17:48:21 435.215
XW-2B 21 Nov 17:35:23 17:38:59 47° 260° (W) 17:42:36 145.730 - 145.750
CUBEBUG 2 21 Nov 17:41:04 17:44:24 20° 71° (ENE) 17:47:42 437.445
NUDT-PHONESAT 21 Nov 17:48:24 17:51:53 46° 261° (W) 17:55:25 437.300
XW-2C 21 Nov 18:01:55 18:04:43 20° 264° (W) 18:07:31 145.795 - 145.815
LilacSat-2 21 Nov 18:04:48 18:07:20 17° 264° (W) 18:09:52 437.200
KKS-1 21 Nov 18:05:22 18:08:17 17° 291° (WNW) 18:11:12 437.445
XW-2F 21 Nov 18:12:41 18:15:00 16° 265° (W) 18:17:20 145.980 - 146.000
CUTE 1.7 + AOD 2 21 Nov 18:14:58 18:19:09 88° 256° (WSW) 18:23:22 437.475
ZACube-1 21 Nov 18:26:38 18:29:27 17° 71° (ENE) 18:32:15 437.345
STARS 21 Nov 18:27:37 18:31:10 24° 289° (WNW) 18:34:41 437.465
UWE-3 21 Nov 18:35:49 18:40:07 47° 75° (ENE) 18:44:20 435.000/436.395/437.385
ISS 21 Nov 18:39:49 18:41:58 16° 126° (SE) 18:44:05 437.550
SRMSAT 21 Nov 18:40:50 18:45:54 30° 179° (S) 18:50:59 437.500
SEEDS 21 Nov 18:44:33 18:48:39 64° 259° (WSW) 18:52:48 437.485
JUGNU 21 Nov 18:45:35 18:49:20 18° 195° (SSW) 18:53:06 437.505
AAUSAT CUBESAT 2 21 Nov 18:49:50 18:53:49 54° 76° (ENE) 18:57:51 437.432
CUTE-I 21 Nov 18:55:03 18:57:12 12° 267° (W) 18:59:22 437.470
XW-2A 21 Nov 19:02:36 19:05:54 75° 259° (W) 19:09:14 145.665 - 145.685
RS-15 21 Nov 19:04:20 19:16:15 55° 303° (WNW) 19:28:15 29.354- 29.394
STRAND 1 21 Nov 19:11:30 19:16:37 76° 102° (ESE) 19:21:41 437.568
HO-68 21 Nov 19:15:31 19:21:41 31° 262° (W) 19:27:54 435.675
AO-73 21 Nov 19:15:41 19:19:59 61° 76° (ENE) 19:24:10 145.935
CUBEBUG 2 21 Nov 19:16:46 19:20:47 29° 263° (W) 19:24:43 437.445
nSIGHT-1 21 Nov 19:29:05 19:32:17 81° 316° (NW) 19:35:30 .
FO-29 21 Nov 19:31:13 19:38:01 33° 95° (E) 19:44:18 435.910
Oscar 11 21 Nov 19:31:30 19:35:43 60° 76° (ENE) 19:39:57 .
SO-50 21 Nov 19:52:27 19:55:13 16° 109° (ESE) 19:57:59 436.795
ZACube-1 21 Nov 20:01:38 20:05:28 30° 262° (W) 20:09:14 437.345
EO-88 21 Nov 20:13:36 20:15:09 12° 70° (ENE) 20:16:43 145.990 - 145.960
ISS 21 Nov 20:15:19 20:18:13 29° 319° (NW) 20:21:08 437.550
Max Valier Satellite 21 Nov 20:15:21 20:18:05 20° 72° (ENE) 20:20:49 145.860
UWE-3 21 Nov 20:15:22 20:16:40 11° 266° (W) 20:17:58 435.000/436.395/437.385
SRMSAT 21 Nov 20:29:49 20:34:36 25° 189° (S) 20:39:24 437.500
DELFI C3 21 Nov 20:49:59 20:53:55 79° 256° (WSW) 20:57:55 145.870
FO-29 21 Nov 21:15:47 21:22:56 42° 291° (WNW) 21:29:37 435.910
RS-15 21 Nov 21:26:09 21:32:19 15° 329° (NNW) 21:38:29 29.354- 29.394
SO-50 21 Nov 21:31:13 21:35:20 36° 302° (WNW) 21:39:28 436.795
EO-88 21 Nov 21:45:22 21:48:28 27° 262° (W) 21:51:35 145.990 - 145.960
Max Valier Satellite 21 Nov 21:49:22 21:51:46 17° 264° (W) 21:54:11 145.860
UNISAT 6 21 Nov 21:53:11 21:57:21 55° 284° (WNW) 22:01:30 437.425
O/OREOS (USA 219) 21 Nov 21:55:44 21:56:44 11° 60° (ENE) 21:57:44 437.305
TIGRISAT 21 Nov 21:57:22 22:01:30 54° 284° (WNW) 22:05:38 435.000
LO-87 21 Nov 22:07:07 22:10:35 46° 76° (ENE) 22:14:04 145.935 - 145.965
SRMSAT 21 Nov 22:20:11 22:23:13 14° 198° (SSW) 22:26:14 437.500
NO-84 21 Nov 22:23:42 22:27:57 63° 49° (NE) 22:32:05 435.350 FM
ESTCUBE 1 21 Nov 22:25:19 22:29:42 58° 75° (ENE) 22:34:06 437.505/2401.250
PCSat 21 Nov 22:39:52 22:44:29 29° 107° (ESE) 22:49:06 145.827
PRISM 21 Nov 22:40:10 22:44:09 46° 286° (WNW) 22:48:06 437.425
AIST 2D 21 Nov 22:42:21 22:45:47 47° 99° (E) 22:49:12 435.315
VELOX 1 21 Nov 22:45:27 22:47:17 12° 67° (ENE) 22:49:08 145.980
DUCHIFAT 1 21 Nov 23:01:06 23:03:46 17° 95° (E) 23:06:26 145.980
EO-79 21 Nov 23:08:31 23:12:09 28° 98° (E) 23:15:45 145.935-145.965
NANOSAT C BR1 21 Nov 23:11:20 23:14:52 27° 97° (E) 23:18:23 145.865
POLYITAN 1 21 Nov 23:23:42 23:27:43 45° 100° (E) 23:31:42 437.675
O/OREOS (USA 219) 21 Nov 23:32:01 23:36:27 55° 255° (WSW) 23:40:50 437.305
SPROUT 21 Nov 23:34:22 23:38:39 84° 76° (ENE) 23:42:56 437.525
QB50P2 21 Nov 23:46:56 23:51:08 77° 282° (WNW) 23:55:18 145.880/145.840
BUGSAT 1 21 Nov 23:51:18 23:53:17 13° 95° (E) 23:55:15 437.445
NO-84 22 Nov 00:03:37 00:04:47 11° 242° (WSW) 00:05:57 435.350 FM
UKube-1 22 Nov 00:08:37 00:10:51 14° 68° (ENE) 00:13:05 .
VELOX 1 22 Nov 00:19:02 00:23:15 45° 260° (W) 00:27:32 145.980
Oscar 19 22 Nov 00:23:00 00:26:44 20° 96° (E) 00:30:28 437.125/150
PCSat 22 Nov 00:23:06 00:27:45 29° 301° (WNW) 00:32:24 145.827
DUCHIFAT 1 22 Nov 00:35:50 00:39:23 27° 288° (WNW) 00:42:54 145.980
EO-79 22 Nov 00:44:56 00:47:37 17° 290° (WNW) 00:50:17 145.935-145.965
NANOSAT C BR1 22 Nov 00:47:32 00:50:19 18° 290° (WNW) 00:53:07 145.865
Gurwin Techsat 1B 22 Nov 00:53:52 00:58:29 30° 97° (E) 01:03:04 435.225
DX 1 22 Nov 01:01:46 01:06:06 72° 258° (WSW) 01:10:29 434.975-435.025
POLYITAN 1 22 Nov 01:01:57 01:03:01 11° 292° (WNW) 01:04:05 437.675
